Location: Fauquembergues
(50.6005°N, 2.0987°E)
Time: 03:48:09
(UTC+00:00)

Resurs 1-4 Rocket - Pass Details

Date: 14 July 2020
Orbit: 800 x 814 km, 98.6° (Epoch: 06 August)

Event Time Altitude Azimuth Distance (km) Brightness Sun altitude
Rises 01:20:57 0° 17° (NNE) 3,350 7.2 -15.5°
Reaches altitude 10° 01:23:21 10° 21° (NNE) 2,413 6.0 -15.3°
Maximum altitude 01:28:38 62° 102° (ESE) 911 2.4 -15.0°
Enters shadow 01:32:21 20° 179° (S) 1,813 3.4 -14.8°
